Location: Helion Bumpstead
(52.0500°N, 0.4000°E)
Time: 20:40:16
(UTC+00:00)

SL-08 R/B - Pass Details

Date: 15 November 2025
Orbit: 667 x 730 km, 98.5° (Epoch: 06 December)

Event Time Altitude Azimuth Distance (km) Brightness Sun altitude
Rises 06:34:00 0° 153° (SSE) 3,018 7.4 -7.0°
Reaches altitude 10° 06:36:14 10° 150° (SSE) 2,102 6.6 -6.7°
Maximum altitude 06:40:46 63° 70° (ENE) 752 3.8 -6.1°
Drops below altitude 10° 06:45:17 10° 350° (N) 2,106 5.5 -5.4°
Sets 06:47:32 0° 348° (NNW) 3,024 6.2 -5.1°
